Location: Fountain Hills
(33.6120°N, 111.7170°W)
Time: 13:54:12
(UTC-07:00)

Daily predictions for brighter satellites

Satellite Brightness Start Highest point End
(mag) Time Altitude Azimuth Time Altitude Azimuth Time Altitude Azimuth
Cosmos 2278 Rocket 2.5 18:32:48 10° N 18:38:14 46° ENE 18:43:38 10° SE
Meteor 1-24 Rocket 4.4 18:34:38 10° NNE 18:39:38 31° ENE 18:44:26 10° SE
Milstar 3 4.4 18:35:16 10° WSW 18:44:39 68° S 19:03:06 11° E
Tsikada Rocket 4.3 18:42:25 10° N 18:48:43 77° W 18:54:53 10° S
Myojo/LAPS 4.2 18:48:41 10° WSW 18:50:51 25° S 18:53:05 10° SE
Meteor 1-29 4.2 18:48:54 10° NE 18:51:43 22° E 18:54:31 10° SSE
OAO 3 Rocket 3.3 18:47:00 10° WSW 18:51:43 67° SSE 18:56:32 10° E
GPS 2-05 Rocket1 3.3 18:52:15 10° W 18:55:32 54° SSW 18:58:56 10° ESE
ATLAS CENTAUR R/B 2.3 18:52:43 10° N 18:56:18 27° NE 18:59:27 11° ESE
CZ-4C R/B 3.2 18:53:32 10° SW 18:58:34 48° NW 19:04:10 10° NNE
Cosmos 1484 Rocket 3.4 18:57:04 10° S 19:00:47 58° W 19:04:34 10° NNW
Cosmos 2346 Rocket 4.4 18:57:24 10° N 19:03:28 73° E 19:09:29 10° SSE
Cosmos 2333 Rocket 3.6 18:58:09 10° SW 19:03:35 42° WNW 19:09:04 10° N
COSMO-SKYMED 1 4.4 19:02:00 10° N 19:05:59 36° WNW 19:09:57 10° SW
Atlas Centaur 2 3.2 18:59:18 10° W 19:07:50 69° S 19:14:29 15° ESE
SAR-Lupe-4 3.8 19:05:28 10° S 19:09:00 72° WSW 19:12:34 10° NNW
USA 215 3.8 19:05:04 10° NE 19:11:29 62° NW 19:17:53 10° WSW
Helios 1A 3.4 19:08:16 10° SE 19:12:11 40° ENE 19:16:06 10° N
Cosmos 2034 Rocket 4.2 19:13:06 10° SSE 19:19:00 47° E 19:25:00 10° NNE
Cosmos 1766 3.2 19:16:01 10° S 19:19:56 87° E 19:23:55 10° N
Cosmos 1464 Rocket 3.9 19:16:34 10° S 19:22:49 72° E 19:29:01 10° N
OAO 1 Rocket 4.5 19:17:41 10° WSW 19:23:01 69° SSE 19:26:33 21° E
GPS 2-04 Rocket1 4.2 19:20:41 10° SSW 19:23:06 17° SSE 19:23:23 17° SE
SEDSat Delta rocket 4.2 19:17:15 10° WSW 19:23:55 63° SSE 19:28:30 21° E
ASTRO E2 2.9 19:23:29 10° WSW 19:27:26 55° S 19:29:15 29° ESE
SeaSat 1 2.8 19:23:22 10° NE 19:28:02 41° ESE 19:32:39 10° S
Cosmos 1766 Rocket 3.9 19:24:25 10° N 19:28:34 40° E 19:31:19 18° SE
ATLAS CENTAUR R/B 3.5 19:26:36 10° SW 19:30:55 72° NW 19:44:24 10° NE
CZ-4B DEB 3.6 19:31:08 31° ENE 19:31:08 31° ENE 19:33:55 10° N
Cosmos 192 4.3 19:27:11 10° SSW 19:32:08 84° ESE 19:37:06 10° NNE
Cosmos 1953 2.4 19:28:17 10° SSE 19:32:08 49° E 19:36:00 10° NNE
In-Cosmos 22 4.4 19:28:01 10° N 19:33:38 50° E 19:39:10 10° SSE
Cosmos 2237 Rocket 4.3 19:29:44 10° WSW 19:34:32 28° WNW 19:39:22 10° N
CZ-2D R/B 3.9 19:36:40 33° E 19:36:50 33° ENE 19:40:21 10° N
BREEZE-M DEB (TANK) 4.5 19:33:18 10° NW 19:37:30 76° SW 19:53:35 10° SE
NOSS 3-2 (A) 3.8 19:35:23 10° SW 19:41:19 66° WNW 19:47:46 10° NNE
BREEZE-M DEB (TANK) 4.3 19:20:39 10° NW 19:42:47 77° NE 19:46:06 29° ESE
Cosmos 1269 Rocket 4.4 19:40:52 10° S 19:45:45 40° E 19:50:39 10° NNE
ATLAS 5 CENTAUR R/B 1.7 19:45:27 10° SSW 19:50:08 85° WNW 19:55:11 10° NNE
SL-16 R/B 3.3 19:46:48 10° SW 19:52:14 46° WNW 19:57:43 10° N
Cosmos 724 4.2 19:47:33 10° SSW 19:53:22 71° ESE 19:59:23 10° NNE
Spot 2 Rocket 4.0 19:49:01 10° S 19:53:58 59° WSW 19:58:57 10° NNW
Cosmos-2242 2.9 19:50:03 10° S 19:54:22 86° E 19:58:46 10° N
Cosmos 1805 3.3 19:50:59 10° S 19:54:53 80° W 19:58:50 10° N
Cosmos 1076 Rocket 3.7 19:51:40 10° N 19:55:59 73° W 20:00:13 10° S
Resurs 01 Rocket 2.6 19:53:46 10° S 19:58:03 48° W 20:02:22 10° NNW
H-2A R/B 2.8 19:58:28 62° ENE 19:58:28 62° ENE 20:02:08 10° N
Cosmos 2056 Rocket 4.3 19:54:30 10° NNW 19:59:47 54° WSW 20:05:02 10° S
Resurs 1-3 4.3 19:59:58 10° S 20:04:15 54° W 20:08:33 10° NNW
Cosmos 1408 Rocket 3.9 20:00:51 10° NNW 20:05:10 65° W 20:08:07 19° S
ALOS 2.3 20:04:53 27° S 20:07:28 78° W 20:12:08 10° NNW
Timation 1 Rocket 4.3 20:04:18 10° NNW 20:10:18 86° WSW 20:12:56 35° SSE
Cosmos 1758 4.4 20:08:18 10° SSW 20:12:11 45° W 20:16:08 10° N
NOSS 3-3 (A) 4.4 20:08:13 10° NNW 20:15:50 78° ENE 20:18:49 43° SE
NOSS 3-3 (C) 4.4 20:08:19 10° NNW 20:15:56 77° ENE 20:18:53 43° SE
NOSS 3-2 (C) 4.5 20:12:05 10° SW 20:17:50 45° NW 20:24:02 10° NNE
ASTEX 1 3.6 20:15:23 10° N 20:20:16 70° W 20:25:07 10° SSW
CENTAUR R/B 3.9 20:18:29 10° S 20:20:10 20° S 20:20:10 20° S
FENGYUN 3A 4.3 20:26:06 20° S 20:29:36 52° W 20:34:50 10° NNW
Cosmos 1743 Rocket 4.4 20:26:48 10° N 20:30:02 47° NNW 20:30:02 47° NNW
ATLAS CENTAUR R/B 3.6 20:32:16 10° WNW 20:35:06 19° WSW 20:35:50 18° SW
OAO 3 Rocket 3.7 20:30:29 10° W 20:34:24 57° WNW 20:34:24 57° WNW
Cosmos 1603 4.5 20:33:34 10° SW 20:39:06 51° WNW 20:44:44 10° N
Nadezhda 4 Rocket 4.3 20:34:28 10° NNW 20:40:40 65° W 20:43:07 37° SSW
Cosmos 2369 Rocket 3.8 20:37:44 10° N 20:40:09 22° NNE 20:40:09 22° NNE
Cosmos 1092 Rocket 3.9 20:38:34 10° N 20:44:44 84° WNW 20:44:44 84° WNW
Cosmos 1634 Rocket 4.1 20:54:30 69° NW 20:54:30 69° NW 21:00:08 10° N
Atlas Centaur 2 3.4 20:49:38 10° W 20:57:08 43° SSW 20:57:08 43° SSW
BREEZE-M DEB (TANK) 4.2 20:40:57 10° NW 21:03:00 66° SW 21:03:46 62° SSW
